YO8RXT-3 Weather Reports


time (UTC)temp
F
wind
direction
speed
knots
gust
knots
rain 1hr
in
rain 24hr
in
rain mn
in
humidity
%
barometer
mb
20260502220503 45 0.9 0.0 0.00 0.00 0.00 49 1023.0
20260502213502 45 0 0.0 0.0 0.00 0.00 0.00 49 1023.0
20260502210502 46 0.9 0.0 0.00 0.00 0.00 46 1023.0
20260502203502 46 0 0.0 0.0 0.00 0.00 0.00 43 1023.0
20260502200503 48 110 2.6 0.0 0.00 0.00 0.00 40 1023.0
20260502193503 48 70 2.6 0.0 0.00 0.00 0.00 40 1023.0
20260502190502 48 50 5.2 0.0 0.00 0.00 0.00 40 1023.0
20260502183503 50 50 5.2 0.0 0.00 0.00 0.00 37 1023.0
20260502180503 50 50 5.2 0.0 0.00 0.00 0.00 40 1023.0
20260502170503 54 70 4.3 0.0 0.00 0.00 0.00 35 1023.0
20260502163503 55 80 6.1 0.0 0.00 0.00 0.00 31 1023.0
20260502160502 55 90 5.2 0.0 0.00 0.00 0.00 31 1023.0
20260502150502 55 50 7.0 0.0 0.00 0.00 0.00 28 1023.0
20260502130502 55 70 7.8 0.0 0.00 0.00 0.00 33 1023.0
20260502123503 55 70 6.1 0.0 0.00 0.00 0.00 33 1024.0
20260502120503 57 70 7.8 0.0 0.00 0.00 0.00 31 1024.0
20260502113502 55 60 7.8 0.0 0.00 0.00 0.00 31 1024.0
20260502110502 55 70 7.8 0.0 0.00 0.00 0.00 31 1024.0
20260502103503 55 100 7.0 0.0 0.00 0.00 0.00 33 1024.0
20260502100502 54 50 7.0 0.0 0.00 0.00 0.00 38 1024.0
20260502090503 54 140 6.1 0.0 0.00 0.00 0.00 44 1024.0
20260502070503 48 70 2.6 0.0 0.00 0.00 0.00 62 1024.0
20260502063502 48 60 2.6 0.0 0.00 0.00 0.00 62 1024.0
20260502060502 46 310 2.6 0.0 0.00 0.00 0.00 76 1024.0
20260502053502 46 260 2.6 0.0 0.00 0.00 0.00 71 1024.0
20260502050502 46 1.7 0.0 0.00 0.00 0.00 71 1024.0
20260502043502 45 250 2.6 0.0 0.00 0.00 0.00 76 1023.0
20260502040502 45 250 2.6 0.0 0.00 0.00 0.00 71 1023.0
20260502033503 45 1.7 0.0 0.00 0.00 0.00 71 1023.0
20260502030503 45 280 4.3 0.0 0.00 0.00 0.00 71 1023.0
20260502023502 43 220 2.6 0.0 0.00 0.00 0.00 81 1023.0
20260502020503 45 340 4.3 0.0 0.00 0.00 0.00 71 1023.0
20260502013502 45 320 5.2 0.0 0.00 0.00 0.00 71 1023.0
20260502010503 45 330 7.0 0.0 0.00 0.00 0.00 71 1023.0
20260502003503 45 340 7.8 0.0 0.00 0.00 0.00 71 1023.0
20260502000501 45 330 6.1 0.0 0.00 0.00 0.00 71 1023.0
20260501233502 46 340 5.2 0.0 0.00 0.00 0.00 66 1023.0
20260501230503 46 330 6.1 0.0 0.00 0.00 0.00 66 1023.0
20260501223503 45 330 7.0 0.0 0.00 0.00 0.00 76 1024.0